Tracking 25612 objects as of 20-May-2022
HD Live streaming from Space Station
objects crossing your sky now

COSMOS 2251 DEB

Track COSMOS 2251 DEB now!
10-day predictions


NORAD ID: 33784
Int'l Code: 1993-036Z
Perigee: 637.5 km
Apogee: 711.0 km
Inclination: 74.2 °
Period: 98.1 minutes
Semi major axis: 7045 km
RCS: 0.1566 m2 (medium)
Launch date: June 16, 1993
Source: Commonwealth of Independent States (former USSR) (CIS)
Launch site: PLESETSK MISSILE AND SPACE COMPLEX (PKMTR)

Note: This is SATELLITE DEBRIS
aabbcc
Your satellite tracking list
Your tracking list is empty




NASA's NSSDC Master Catalog

Two Line Element Set (TLE):
1 33784U 93036Z   22139.54133043  .00008136  00000-0  13911-2 0  9991
2 33784  74.1997 228.4869 0052156  99.1183 274.4827 14.68099428706753
Source of the keplerian elements: AFSPC